Weather History for Whiteville, NC

Change the Weather History Date:

Sunday, January 19, 2014

  Actual Average (KLBT) Record (KLBT)
Temperature  
Mean Temperature 42 °F 43 °F  
Max Temperature 56 °F 54 °F 75 °F (2001)
Min Temperature 29 °F 33 °F 12 °F (2005)
Degree Days  
Heating Degree Days 22 22  
Month to date heating degree days 417  
Since 1 July heating degree days 1467  
Cooling Degree Days 0 0  
Month to date cooling degree days 0  
Year to date cooling degree days 0  
Moisture  
Dew Point 27 °F    
Average Humidity 57    
Maximum Humidity 78    
Minimum Humidity 35    
Precipitation  
Precipitation 0.00 in 0.10 in 0.77 in (2008)
Month to date precipitation 1.64  
Year to date precipitation 1.64  
Sea Level Pressure  
Sea Level Pressure 30.01 in    
Wind  
Wind Speed 4 mph (SW)    
Max Wind Speed 12 mph    
Max Gust Speed 16 mph    
Visibility 10 miles    
Events Rain    
T = Trace of Precipitation, MM = Missing Value Source: NWS Daily Summary

Daily Weather History Graph

Daily Weather History Graph

Search for Another Location

Airport:

Trip Planner

Search our weather history database for the weather conditions in past years. The results will help you decide how hot, cold, wet, or windy it might be!

Date:

Astronomy

Jan. 19, 2014 Rise Set
Actual Time 7:19 AM EST 5:32 PM EST
Civil Twilight 6:52 AM EST 5:59 PM EST
Nautical Twilight 6:21 AM EST 6:29 PM EST
Astronomical Twilight 5:51 AM EST 6:59 PM EST
Moon 8:57 PM EST (1/19) 8:58 AM EST (1/19)
Length of Visible Light 11h 06m
Length of Day
10h 12m
Waning Gibbous, 89% of the Moon is Illuminated
Jan 19
Waning Gibbous
Jan 24
Last Quarter
Jan 30
New
Feb 6
First Quarter
Feb 14
Full

Hourly Weather History & Observations

Time (EST) Temp. Windchill Dew Point Humidity Pressure Visibility Wind Dir Wind Speed Gust Speed Precip Events Conditions
12:15 AM 31.6 °F 28.3 °F 20.8 °F 64% 30.06 in 10.0 mi SSW 3.5 mph - N/A   Clear
12:35 AM 32.0 °F - 20.8 °F 63% 30.08 in 10.0 mi Calm Calm - N/A   Clear
12:55 AM 32.0 °F - 21.4 °F 65% 30.08 in 10.0 mi Calm Calm - N/A   Clear
1:15 AM 30.6 °F - 21.9 °F 70% 30.07 in 10.0 mi Calm Calm - N/A   Clear
1:35 AM 30.2 °F - 23.4 °F 76% 30.07 in 10.0 mi Calm Calm - N/A   Clear
1:55 AM 29.5 °F - 23.4 °F 78% 30.06 in 10.0 mi Calm Calm - N/A   Clear
2:15 AM 30.9 °F 27.5 °F 22.8 °F 72% 30.06 in 10.0 mi SSW 3.5 mph - N/A   Clear
2:35 AM 31.1 °F 27.7 °F 22.5 °F 70% 30.06 in 10.0 mi SSW 3.5 mph - N/A   Clear
2:55 AM 31.1 °F - 23.0 °F 72% 30.05 in 10.0 mi Calm Calm - N/A   Clear
3:15 AM 31.3 °F 27.9 °F 23.5 °F 73% 30.05 in 10.0 mi SSW 3.5 mph - N/A   Clear
3:35 AM 31.6 °F 28.3 °F 23.0 °F 70% 30.05 in 10.0 mi South 3.5 mph - N/A   Scattered Clouds
3:55 AM 32.0 °F 27.5 °F 23.2 °F 70% 30.04 in 10.0 mi South 4.6 mph - N/A   Clear
4:15 AM 32.2 °F 27.7 °F 23.5 °F 70% 30.03 in 10.0 mi SSW 4.6 mph - N/A   Mostly Cloudy
4:35 AM 32.0 °F 28.7 °F 23.9 °F 72% 30.03 in 10.0 mi SSW 3.5 mph - N/A   Scattered Clouds
4:55 AM 32.0 °F 28.7 °F 24.4 °F 74% 30.03 in 10.0 mi South 3.5 mph - N/A   Clear
5:15 AM 32.4 °F 27.9 °F 24.4 °F 73% 30.02 in 10.0 mi South 4.6 mph - N/A   Clear
5:35 AM 32.5 °F 29.3 °F 24.3 °F 72% 30.02 in 10.0 mi South 3.5 mph - N/A   Clear
5:55 AM 33.3 °F 30.2 °F 23.5 °F 68% 30.02 in 10.0 mi South 3.5 mph - N/A   Clear
6:15 AM 33.8 °F 28.6 °F 23.4 °F 66% 30.02 in 10.0 mi SSW 5.8 mph - N/A   Scattered Clouds
6:35 AM 34.7 °F 30.6 °F 23.4 °F 63% 30.01 in 10.0 mi South 4.6 mph - N/A   Mostly Cloudy
6:55 AM 34.2 °F 29.0 °F 23.7 °F 66% 30.01 in 10.0 mi South 5.8 mph - N/A   Mostly Cloudy
7:15 AM 34.7 °F 30.6 °F 23.2 °F 63% 30.01 in 10.0 mi WSW 4.6 mph - N/A   Mostly Cloudy
7:35 AM 34.3 °F 30.2 °F 24.6 °F 68% 30.01 in 10.0 mi SSW 4.6 mph - N/A   Overcast
7:55 AM 35.1 °F 32.2 °F 25.2 °F 67% 30.02 in 10.0 mi SSW 3.5 mph - N/A   Overcast
8:15 AM 36.0 °F 33.3 °F 25.3 °F 65% 30.02 in 10.0 mi SSW 3.5 mph - N/A   Overcast
8:35 AM 37.6 °F 35.1 °F 24.8 °F 60% 30.02 in 10.0 mi SW 3.5 mph - N/A   Overcast
8:55 AM 39.7 °F 37.6 °F 22.3 °F 50% 30.03 in 10.0 mi SW 3.5 mph - N/A   Overcast
9:15 AM 40.5 °F 35.1 °F 21.9 °F 48% 30.03 in 10.0 mi SW 8.1 mph - N/A   Overcast
9:35 AM 41.0 °F 35.8 °F 22.1 °F 47% 30.04 in 10.0 mi SW 8.1 mph - N/A   Overcast
9:55 AM 41.5 °F 37.1 °F 23.4 °F 49% 30.04 in 10.0 mi SW 6.9 mph - N/A   Overcast
10:15 AM 41.9 °F 36.9 °F 25.3 °F 52% 30.04 in 10.0 mi SW 8.1 mph - N/A   Light Drizzle
10:35 AM 41.7 °F 36.7 °F 28.9 °F 61% 30.03 in 10.0 mi SSW 8.1 mph - N/A Rain Light Rain
10:55 AM 44.4 °F 40.0 °F 28.2 °F 53% 30.03 in 10.0 mi SSW 8.1 mph - N/A   Scattered Clouds
11:15 AM 46.4 °F 41.9 °F 27.7 °F 48% 30.02 in 10.0 mi SSW 9.2 mph - N/A   Clear
11:35 AM 48.6 °F - 28.0 °F 45% 30.02 in 10.0 mi SSW 9.2 mph - N/A   Scattered Clouds
11:55 AM 49.1 °F - 27.5 °F 43% 30.00 in 10.0 mi SW 11.5 mph 16.1 mph N/A   Scattered Clouds
12:15 PM 51.8 °F - 28.9 °F 41% 29.99 in 10.0 mi WSW 8.1 mph - N/A   Clear
12:35 PM 51.1 °F - 28.2 °F 41% 29.98 in 10.0 mi West 6.9 mph - N/A   Scattered Clouds
12:55 PM 52.0 °F - 27.9 °F 39% 29.96 in 10.0 mi WSW 6.9 mph 16.1 mph N/A   Scattered Clouds
1:15 PM 52.7 °F - 28.9 °F 40% 29.96 in 10.0 mi SW 6.9 mph - N/A   Clear
1:35 PM 53.6 °F - 29.1 °F 39% 29.95 in 10.0 mi WSW 8.1 mph - N/A   Clear
1:55 PM 54.5 °F - 29.7 °F 39% 29.95 in 10.0 mi West 6.9 mph - N/A   Clear
2:15 PM 54.7 °F - 30.0 °F 39% 29.95 in 10.0 mi SSW 6.9 mph - N/A   Clear
2:35 PM 55.4 °F - 30.0 °F 38% 29.94 in 10.0 mi WSW 4.6 mph 16.1 mph N/A   Clear
2:55 PM 56.3 °F - 29.5 °F 36% 29.94 in 10.0 mi WSW 6.9 mph - N/A   Clear
3:15 PM 56.3 °F - 28.9 °F 35% 29.94 in 10.0 mi WSW 8.1 mph 16.1 mph N/A   Clear
3:35 PM 56.1 °F - 29.1 °F 36% 29.94 in 10.0 mi SW 9.2 mph - N/A   Clear
3:55 PM 56.3 °F - 28.9 °F 35% 29.95 in 10.0 mi SW 8.1 mph - N/A   Clear
4:15 PM 55.8 °F - 29.5 °F 37% 29.95 in 10.0 mi WSW 3.5 mph - N/A   Clear
4:35 PM 55.4 °F - 29.8 °F 38% 29.95 in 10.0 mi WSW 8.1 mph - N/A   Clear
4:55 PM 54.7 °F - 29.3 °F 38% 29.96 in 10.0 mi West 4.6 mph - N/A   Clear
5:15 PM 53.4 °F - 29.8 °F 40% 29.96 in 10.0 mi Calm Calm - N/A   Clear
5:35 PM 52.2 °F - 30.2 °F 43% 29.96 in 10.0 mi Calm Calm - N/A   Clear
5:55 PM 50.5 °F - 30.7 °F 47% 29.97 in 10.0 mi Calm Calm - N/A   Clear
6:15 PM 49.1 °F - 31.3 °F 50% 29.98 in 10.0 mi Calm Calm - N/A   Clear
6:35 PM 46.0 °F - 32.0 °F 58% 29.98 in 10.0 mi Calm Calm - N/A   Clear
6:55 PM 46.6 °F - 31.5 °F 56% 29.98 in 10.0 mi Calm Calm - N/A   Clear
7:15 PM 45.5 °F 44.2 °F 31.6 °F 58% 29.99 in 10.0 mi SSW 3.5 mph - N/A   Clear
7:55 PM 43.7 °F - 31.8 °F 63% 30.00 in 10.0 mi Calm Calm - N/A   Clear
8:15 PM 41.9 °F - 32.0 °F 68% 30.00 in 10.0 mi Calm Calm - N/A   Clear
8:35 PM 41.5 °F - 32.0 °F 69% 30.00 in 10.0 mi Calm Calm - N/A   Clear
8:55 PM 41.0 °F - 31.8 °F 70% 29.99 in 10.0 mi Calm Calm - N/A   Clear
9:15 PM 41.2 °F - 32.0 °F 70% 30.00 in 10.0 mi Calm Calm - N/A   Clear
9:35 PM 42.8 °F - 31.1 °F 63% 30.00 in 10.0 mi Calm Calm - N/A   Clear
9:55 PM 40.3 °F - 31.5 °F 71% 30.00 in 10.0 mi Calm Calm - N/A   Clear
10:15 PM 41.0 °F - 31.5 °F 69% 30.01 in 10.0 mi Calm Calm - N/A   Clear
10:35 PM 44.6 °F 43.1 °F 30.2 °F 57% 30.00 in 10.0 mi SW 3.5 mph - N/A   Clear
10:55 PM 41.7 °F 39.8 °F 31.1 °F 66% 30.00 in 10.0 mi SW 3.5 mph - N/A   Clear
11:15 PM 39.6 °F 37.4 °F 30.9 °F 71% 30.00 in 10.0 mi SW 3.5 mph - N/A   Clear
11:35 PM 42.1 °F 39.2 °F 30.2 °F 63% 30.00 in 10.0 mi SW 4.6 mph - N/A   Clear
11:55 PM 44.1 °F 42.5 °F 30.2 °F 58% 29.99 in 10.0 mi SW 3.5 mph - N/A   Clear